Hourly Data Report for September 27, 2017

All times are specified in Local Standard Time (LST). Add 1 hour to adjust for Daylight Saving Time where and when it is observed.

POND INLET A
NUNAVUT

72°41'22.000" N
77°58'08.000" W
61.60 m
2403206
71095
YIO

Download Data

Hourly Data (September 2017)
Hourly Data Report for September 27, 2017
Temp Definition
°C
Dew Point Temp Definition
°C
Rel Hum Definition
%
Wind Dir Definition
10's deg

Wind Spd Definition
km/h
Visibility Definition
km
Stn Press Definition
kPa
Hmdx Definition


Wind Chill Definition


Weather Definition


TIME
00:00 Legend Double Dagger -4.0 -7.5 77   0 16.1 100.56     LegendNANA
01:00 Legend Double Dagger -4.0 -7.6 76 1 8 16.1 100.57   -7 LegendNANA
02:00 Legend Double Dagger -3.9 -7.6 76 35 8 16.1 100.57   -7 LegendNANA
03:00 Legend Double Dagger -3.9 -7.7 75 LegendMM 4 16.1 100.58   -6 LegendNANA
04:00 Legend Double Dagger -4.6 -7.7 79 15 9 16.1 100.58   -8 LegendNANA
05:00 Legend Double Dagger -4.6 -7.2 82 16 11 16.1 100.59   -9 LegendNANA
06:00 Legend Double Dagger -4.5 -6.8 84 16 11 16.1 100.59   -9 LegendNANA
07:00 Legend Double Dagger -4.2 -6.7 83 17 11 16.1 100.56   -9 LegendNANA
08:00 Legend Double Dagger -4.0 -6.5 83 20 11 16.1 100.54   -8 LegendNANA
09:00 Legend Double Dagger -3.3 -6.0 82 35 5 16.1 100.51   -5 LegendNANA
10:00 Legend Double Dagger -3.1 -6.4 78 23 5 16.1 100.47   -5 LegendNANA
11:00 Legend Double Dagger -3.2 -6.5 78 23 11 16.1 100.43   -7 LegendNANA
12:00 Legend Double Dagger -3.1 -6.6 77 24 9 16.1 100.41   -7 LegendNANA
13:00 Legend Double Dagger -3.1 -6.9 75 LegendMM 4 16.1 100.37   -5 LegendNANA
14:00 Legend Double Dagger -3.3 -6.6 78 24 8 16.1 100.34   -7 LegendNANA
15:00 Legend Double Dagger -3.6 -7.1 77 31 8 16.1 100.31   -7 LegendNANA
16:00 Legend Double Dagger -3.8 -7.3 77   0 16.1 100.25     LegendNANA
17:00 Legend Double Dagger -4.2 -7.2 80 23 8 16.1 100.19   -8 LegendNANA
18:00 Legend Double Dagger -4.7 -7.6 80 17 8 16.1 100.09   -8 LegendNANA
19:00 Legend Double Dagger -5.1 -7.7 82 19 11 16.1 100.00   -10 LegendNANA
20:00 Legend Double Dagger -5.6 -8.0 83 16 11 16.1 99.88   -10 LegendNANA
21:00 Legend Double Dagger -6.0 -8.0 86 17 13 16.1 99.78   -11 LegendNANA
22:00 Legend Double Dagger -6.1 -7.9 87 15 15 16.1 99.72   -12 LegendNANA
23:00 Legend Double Dagger -6.4 -8.1 88 17 21 16.1 99.68   -13 LegendNANA

Notes on Data Quality.

Legend

  • E = Estimated
  • M = Missing
  • NA = Not Available
  • ‡ = Partner data that is not subject to review by the National Climate Archives
Date modified: